RH
11 13 13 11 11 9 13 17 16 18 23 24 24 26 25 27 32 32 31 32 34 40 39 37 38 36 41 50 50 49 52 54 54 55 57 57 58 60 62 62 62 62 59 59 65 66 67 70 72 74 75 78 80 83 84 84 86 84 82 81 81 84 91 94 93 92 93 91 91 93 94 94 95 99 96 88 86 86 87 87 87 88 87 84 87 93
11 13 13 10 10 9 11 16 18 21 24 24 25 27 27 27 30 30 30 32 33 38 40 40 41 40 42 49 50 49 53 55 53 55 57 57 58 59 61 62 62 61 58 58 63 65 66 67 69 72 74 76 80 84 86 87 88 85 83 82 78 79 88 92 90 90 93 91 90 92 92 90 91 95 97 97 96 93 94 93 91 88 84 83 88 93
13 12 11 9 10 10 11 13 17 22 25 24 24 26 29 27 26 28 29 32 34 36 38 40 41 39 41 47 49 50 52 52 50 50 53 55 57 59 59 61 61 61 62 60 60 61 63 64 66 70 73 74 77 81 85 87 88 87 85 83 77 76 81 84 84 87 89 88 86 85 86 86 86 90 92 94 95 94 94 94 93 88 82 84 90 92
14 11 9 10 11 12 13 15 15 19 24 24 23 26 29 26 26 27 29 33 34 34 36 39 39 38 41 48 50 50 49 49 49 48 49 51 54 56 55 56 59 60 63 62 58 57 60 62 64 68 72 73 74 78 83 86 89 89 86 81 77 75 75 75 76 77 76 77 80 83 88 89 88 90 92 92 92 95 97 95 96 92 86 91 96 96
11 11 11 10 12 13 14 16 14 16 22 24 23 24 25 26 26 25 29 34 34 35 35 35 38 37 39 46 48 48 49 49 49 49 50 50 50 51 51 52 55 57 59 61 58 56 58 60 63 67 70 72 74 76 79 83 86 85 81 76 73 75 76 75 72 69 72 81 87 89 94 94 92 93 93 92 93 97 100 94 95 97 92 94 94 92
10 11 12 11 13 14 13 16 14 13 18 23 22 21 21 23 24 26 30 31 34 38 34 33 40 39 39 44 43 45 52 53 51 52 52 52 50 50 51 52 52 53 55 57 56 55 56 58 62 67 71 72 72 74 77 80 80 77 73 72 72 76 78 77 73 71 81 93 94 93 93 91 88 88 89 92 91 92 96 93 93 97 94 87 82 81
11 11 12 12 13 14 14 15 14 12 15 21 21 18 18 20 22 27 29 28 33 37 32 30 36 37 38 42 42 45 54 55 53 54 52 51 51 50 50 50 49 50 51 53 54 52 53 56 60 64 69 71 70 73 76 78 79 76 72 70 70 74 77 78 73 76 90 98 95 95 93 90 87 87 89 90 86 83 84 87 91 96 95 84 75 75
12 13 13 13 13 14 14 14 15 14 13 17 17 16 18 19 21 27 27 27 29 32 34 33 32 36 36 37 44 48 53 57 56 56 53 50 50 49 48 47 47 48 48 50 52 52 52 54 58 61 67 70 68 72 76 78 80 77 73 70 69 72 74 74 71 77 92 97 96 96 93 92 90 87 87 81 78 79 78 83 92 97 98 90 78 73
11 13 13 14 13 13 13 13 16 15 13 16 16 14 17 18 20 25 23 24 28 31 40 40 35 40 39 37 48 51 52 58 57 55 54 51 50 48 46 45 44 46 46 47 49 50 51 53 56 59 64 68 68 71 76 77 77 74 72 70 69 72 72 70 69 74 86 93 96 97 93 92 88 85 85 82 78 78 81 91 97 96 97 96 84 73
10 12 11 11 12 12 12 13 16 15 13 15 15 14 16 19 23 25 23 26 33 34 40 42 38 41 38 35 46 54 54 54 50 50 50 49 49 48 46 45 43 45 46 46 46 47 49 51 54 57 61 66 68 72 75 75 76 75 73 71 71 74 73 71 70 73 83 93 98 95 89 87 87 85 86 87 84 80 87 98 97 93 93 96 92 79
11 14 13 11 11 11 11 14 15 14 13 14 15 14 17 24 28 30 29 31 38 38 35 36 37 37 32 29 40 50 50 45 41 43 46 47 48 47 47 45 42 44 46 46 45 45 48 50 53 55 59 64 69 73 75 76 78 78 76 74 73 74 74 75 74 77 87 95 98 96 88 84 85 86 86 89 89 84 90 96 92 89 87 91 95 83
12 14 13 11 12 11 10 13 15 14 13 12 14 15 19 27 29 31 35 34 38 38 30 30 35 37 33 27 34 39 37 36 36 36 40 43 46 46 46 44 42 43 45 46 47 46 48 51 54 56 58 64 70 74 76 76 78 80 80 77 76 78 79 78 78 83 92 96 96 96 92 85 83 84 85 88 90 85 86 86 79 75 75 82 88 80
13 12 11 11 12 11 10 12 15 16 13 11 13 16 20 27 30 32 36 36 36 34 29 30 35 40 38 29 30 34 32 33 33 31 33 36 40 44 45 44 43 43 43 44 47 47 49 53 55 56 59 65 71 74 76 76 77 80 82 79 80 81 80 81 82 86 94 96 95 96 95 90 85 83 84 85 87 85 81 79 71 66 67 73 76 74
14 12 11 10 10 11 9 10 14 17 15 13 14 17 20 25 29 33 37 37 35 30 29 32 36 40 37 28 27 28 26 26 29 30 31 32 36 41 43 43 42 42 42 44 47 47 50 55 55 56 61 66 69 72 75 77 77 80 82 81 80 81 79 81 83 85 92 96 96 95 94 93 88 83 85 86 86 85 81 77 70 64 63 66 69 71
16 15 12 10 10 11 9 8 11 15 15 13 12 14 18 21 23 27 30 30 28 29 34 39 38 35 31 28 28 26 23 24 24 26 30 32 34 36 39 39 39 40 41 44 47 48 50 54 56 58 62 66 68 70 72 76 80 81 82 80 79 80 81 81 82 84 87 90 95 96 93 95 90 81 82 87 87 85 81 76 70 63 61 63 66 67
15 15 11 10 10 10 10 9 9 13 14 14 13 13 17 18 18 23 27 26 25 27 37 43 37 31 28 28 27 25 25 26 24 24 28 31 34 35 36 37 38 39 39 42 46 47 51 54 56 59 61 63 66 68 70 75 81 81 80 80 78 77 79 81 82 83 82 86 93 95 94 97 91 79 80 87 88 85 80 76 69 62 60 60 62 64
16 15 10 10 11 9 9 9 9 11 13 15 16 15 17 14 14 23 28 30 27 22 32 41 34 28 27 23 22 24 24 25 27 27 25 29 35 37 38 38 37 37 39 42 44 48 51 53 56 58 59 61 63 66 71 76 78 77 78 81 80 80 81 81 81 81 83 86 89 93 97 96 83 74 80 88 88 84 79 74 67 60 59 60 61 63
14 14 12 11 10 8 9 9 9 9 10 14 15 14 16 14 16 26 29 29 28 21 29 38 30 24 25 21 22 26 24 21 24 26 26 31 37 37 37 38 38 37 38 42 45 49 51 52 54 56 57 59 61 65 71 74 73 73 77 80 81 83 84 82 82 83 83 83 86 95 97 87 73 70 78 85 85 82 77 71 66 59 58 59 60 62
12 12 13 11 9 9 9 9 10 10 9 12 13 11 14 16 22 32 30 27 27 23 26 33 30 26 24 19 18 19 20 21 23 28 30 31 34 35 34 37 40 39 39 42 45 48 49 50 53 55 56 57 60 66 70 71 72 74 78 80 80 81 80 81 85 87 85 86 91 93 85 75 72 72 76 82 83 80 74 66 62 59 58 58 59 60
12 13 14 12 10 9 9 9 9 10 10 11 12 11 12 15 20 26 23 20 23 24 24 28 31 28 23 21 18 15 18 22 23 28 32 29 31 34 33 35 40 41 42 42 42 45 47 47 50 53 54 55 59 66 68 68 70 71 75 79 80 80 81 82 84 83 84 89 91 86 78 76 77 74 76 82 82 78 70 61 57 57 57 57 56 58
14 16 16 14 12 10 10 10 7 8 10 11 13 13 14 16 17 18 19 19 19 23 26 25 25 23 22 25 23 18 19 22 22 26 31 29 28 30 32 34 40 43 44 43 41 43 44 45 47 50 53 56 59 64 64 63 66 67 69 75 77 79 81 81 83 82 82 85 86 83 82 83 80 77 79 81 80 76 66 57 55 54 53 53 53 57
15 18 17 15 13 12 10 8 7 6 7 9 11 13 13 14 16 17 22 23 18 21 26 24 21 17 18 24 25 22 20 17 19 23 26 26 26 29 33 34 39 44 43 43 42 41 42 45 46 48 53 57 59 62 62 61 63 65 66 70 72 74 76 76 80 84 83 84 85 83 84 84 82 82 82 81 79 72 61 55 53 51 50 51 52 59
17 21 20 16 13 12 9 9 11 8 7 7 8 11 10 12 15 15 21 25 21 23 24 22 22 16 18 28 26 22 22 17 20 26 25 24 26 30 33 32 37 44 43 41 40 39 42 46 48 51 57 61 62 63 63 62 63 64 64 67 68 70 72 71 75 81 82 83 84 83 84 84 83 83 82 80 75 66 58 54 51 49 50 50 52 59
19 22 22 19 15 13 9 9 13 11 9 7 7 10 9 10 11 10 21 28 23 22 22 22 23 15 22 45 41 29 29 24 24 30 28 27 30 32 35 35 39 46 46 43 41 43 46 48 52 58 62 65 66 65 65 65 65 64 64 65 65 67 69 69 72 78 81 83 83 83 85 85 83 82 82 78 71 64 58 54 51 51 51 51 53 57
18 25 24 21 20 19 15 13 14 14 11 8 8 10 9 11 10 10 26 34 24 21 20 19 20 13 23 50 49 36 34 28 24 28 30 34 36 35 37 40 44 48 50 48 48 50 51 52 58 63 65 67 68 67 67 68 67 66 65 65 64 65 67 69 71 75 79 82 82 84 86 84 83 82 80 76 71 64 58 53 51 51 51 53 54 54
20 29 24 21 23 23 22 20 17 16 14 11 11 11 10 11 9 12 25 29 25 28 26 18 17 16 24 37 36 33 35 32 27 29 32 37 39 40 41 43 47 51 53 53 53 55 56 58 62 65 66 67 66 66 69 69 68 66 67 68 66 64 66 69 70 73 77 78 80 83 84 82 82 80 76 74 71 65 59 54 51 50 52 53 52 51
28 35 25 23 24 20 20 22 19 17 14 12 12 11 11 11 9 14 21 22 27 33 29 23 22 19 20 24 25 28 32 33 31 31 35 39 41 43 46 47 49 51 53 54 55 57 61 64 66 66 67 67 64 66 69 68 66 66 68 69 67 66 68 69 71 74 76 76 77 81 82 80 80 74 68 70 71 67 61 55 51 50 52 52 50 52
32 31 23 25 26 18 15 18 18 15 12 11 12 10 10 11 10 14 17 20 30 28 19 29 40 28 18 19 22 26 32 38 40 36 36 40 42 44 46 49 49 49 51 54 56 59 62 65 67 68 67 66 65 67 68 67 66 67 70 70 68 67 69 71 74 77 77 77 79 82 81 78 77 72 66 68 70 67 62 57 53 49 47 48 50 52
27 20 18 20 21 17 12 13 15 15 12 10 10 10 10 11 12 15 16 19 29 24 15 33 51 37 18 17 18 21 27 33 37 38 37 39 42 44 47 49 48 46 49 53 56 59 62 65 68 69 67 66 67 68 68 67 69 71 71 71 70 69 68 71 76 78 78 80 82 83 81 77 76 73 70 73 73 67 62 60 56 47 43 44 46 50
23 23 24 16 15 16 12 11 13 14 14 11 10 10 10 10 11 12 13 15 21 21 14 28 48 39 19 14 15 19 25 29 33 38 38 36 40 44 47 48 46 45 47 51 54 57 60 63 66 68 69 69 68 68 68 69 71 72 70 69 70 71 70 72 78 79 79 82 83 83 81 79 78 75 75 80 78 70 67 66 59 47 44 47 48 51
24 30 32 20 16 18 13 11 13 13 14 13 11 10 9 11 12 12 13 14 20 22 17 24 42 39 22 16 19 27 35 36 36 37 36 37 42 45 46 46 45 45 45 48 52 55 57 61 64 67 69 69 69 69 69 70 72 71 68 67 69 71 71 73 78 79 80 82 83 82 81 81 80 76 77 84 85 76 69 67 62 52 46 49 53 55
29 31 31 25 22 21 15 13 13 12 13 14 12 12 12 12 12 12 14 16 21 25 26 29 34 30 24 22 24 30 36 36 35 37 38 41 43 44 46 47 47 47 46 48 53 55 56 57 61 65 65 64 66 69 69 71 73 72 70 68 68 69 70 72 75 77 79 82 82 81 81 81 81 79 82 89 92 83 69 61 61 59 54 57 59 56
34 30 28 27 26 24 18 14 13 14 18 19 15 13 12 13 14 13 14 17 18 19 24 25 21 21 26 28 25 26 29 33 36 37 40 44 46 47 48 47 47 47 46 49 54 55 53 51 53 59 60 59 62 66 68 70 71 71 71 70 70 70 69 72 75 76 80 82 81 80 81 81 82 84 87 89 88 83 74 66 63 63 65 70 69 60
38 34 33 32 29 27 22 16 16 20 22 21 18 16 12 12 13 12 13 18 18 18 25 27 24 28 32 29 26 27 30 38 42 38 37 42 46 48 48 46 46 45 45 48 50 49 51 52 52 54 57 59 60 62 65 66 67 69 70 71 74 74 72 74 77 78 81 82 82 81 82 83 85 85 84 85 84 82 82 78 73 72 76 83 84 78
42 39 39 36 31 29 27 22 23 25 23 23 28 29 20 11 10 15 25 34 31 28 33 32 28 35 38 33 32 35 37 44 49 45 42 42 43 44 45 46 47 46 46 48 49 49 55 57 56 56 57 56 55 58 61 63 64 67 70 72 75 77 78 79 79 80 81 83 84 84 83 85 87 83 81 85 87 85 85 83 80 82 88 92 90 83
44 40 39 36 31 31 30 26 28 30 29 31 35 35 27 19 16 19 30 42 45 43 42 37 32 37 44 44 41 40 41 45 48 49 47 45 45 43 38 38 42 44 45 48 51 55 59 57 54 55 57 55 54 57 58 60 62 63 65 70 75 77 78 80 81 81 82 84 85 85 84 85 86 85 84 86 89 88 87 85 84 88 92 89 81 74
46 41 39 36 34 35 31 27 31 34 34 36 36 36 34 29 25 23 25 35 47 50 48 48 47 46 47 46 40 39 43 41 38 40 42 41 46 47 40 35 36 39 42 46 50 55 60 58 53 53 57 56 56 57 57 58 61 63 64 69 75 78 77 78 81 82 81 83 85 84 85 86 86 87 88 89 91 91 89 89 89 91 89 81 72 65
51 47 46 40 36 37 33 31 32 32 33 37 37 39 39 36 36 37 32 35 46 50 48 52 55 51 46 44 42 43 42 35 31 38 42 41 43 45 44 42 40 41 46 49 51 55 60 61 58 57 60 60 59 61 62 62 63 67 71 72 73 77 78 78 82 83 81 83 85 84 85 86 87 89 90 91 92 91 91 93 93 91 84 74 65 57
48 52 52 43 38 41 38 36 35 31 35 43 42 40 39 38 43 41 31 34 48 51 49 51 51 48 46 44 44 44 38 32 36 43 47 49 48 45 48 53 51 52 56 58 58 61 65 68 66 63 64 67 68 70 70 68 67 71 76 76 74 75 79 80 82 83 83 84 84 84 86 87 88 90 90 90 91 90 91 93 92 86 75 64 59 60
51 53 50 38 37 46 45 40 36 33 40 49 46 42 41 42 46 39 26 36 53 55 52 51 45 44 46 43 43 46 43 41 46 49 50 55 60 59 61 64 63 62 63 64 67 71 74 75 72 66 66 73 77 76 74 73 75 77 79 78 74 74 78 81 82 82 83 84 84 84 86 88 91 91 90 91 93 91 88 86 83 75 66 63 70 77
68 61 54 41 38 47 50 46 40 38 46 52 47 45 45 42 39 35 33 47 60 59 55 50 42 43 48 46 46 53 54 51 51 53 54 59 64 66 65 65 65 65 65 67 72 73 73 75 75 72 75 82 81 77 75 75 78 81 81 79 77 76 77 78 78 79 80 81 83 85 87 90 92 93 93 95 94 88 81 77 74 71 71 77 85 85
68 64 66 57 46 49 54 50 43 41 47 53 50 47 46 41 38 42 51 59 60 56 54 51 47 48 52 51 51 54 53 49 48 51 55 58 63 66 64 61 61 63 64 68 72 72 72 75 77 76 77 80 78 76 73 73 78 83 82 80 80 79 76 73 73 75 76 79 84 88 92 94 95 95 96 93 86 80 76 74 75 76 79 84 87 83
55 60 76 75 59 57 62 55 50 52 52 52 54 54 51 50 52 56 58 55 50 49 51 50 50 50 49 49 50 48 45 45 46 47 49 52 56 62 65 65 64 63 62 64 67 69 72 75 76 75 75 75 76 75 70 69 77 83 83 83 82 76 73 73 74 74 77 82 87 91 95 98 98 97 94 87 79 78 81 82 81 80 81 83 84 84
47 53 71 79 70 69 74 66 62 65 59 51 54 59 57 55 55 54 51 46 44 44 45 46 49 49 47 47 49 47 46 47 47 47 48 48 50 55 62 67 68 67 65 65 65 67 71 74 74 76 78 76 73 73 69 68 75 84 85 84 80 76 76 78 76 78 84 88 91 94 98 98 95 92 88 84 83 85 87 87 85 84 85 85 81 83
58 54 59 73 77 76 80 79 72 65 57 49 50 53 51 48 46 44 43 43 43 43 43 45 47 46 45 47 48 48 49 50 49 48 49 49 50 54 60 65 67 69 70 70 71 72 72 73 75 77 80 77 71 70 68 65 69 79 84 81 78 80 82 81 80 85 90 90 91 95 97 95 92 86 80 79 85 89 86 83 81 82 82 80 80 84
68 62 61 77 82 71 70 78 77 66 57 52 48 45 44 43 43 43 45 47 48 47 47 49 49 48 48 48 49 52 53 52 52 53 54 55 57 59 63 68 70 71 71 72 76 76 70 70 75 77 80 80 73 69 69 66 66 72 75 75 78 81 81 81 86 90 91 88 89 92 92 92 91 87 81 80 84 85 80 75 73 74 77 81 88 91
63 60 62 75 79 69 62 68 74 72 66 59 52 49 47 46 48 50 53 55 53 50 50 51 52 52 53 55 57 59 57 55 57 60 61 63 65 64 66 70 72 73 75 78 82 81 73 69 72 72 75 78 74 70 71 68 65 66 67 71 78 79 77 83 91 92 89 90 92 92 90 91 90 86 83 83 82 79 77 76 76 79 84 90 92 86
66 64 62 68 75 74 69 68 70 73 71 62 56 55 53 50 50 50 51 52 50 48 49 50 50 49 52 56 60 61 60 62 63 61 60 65 70 71 73 76 76 76 78 79 80 81 77 73 71 70 73 77 74 70 71 70 69 68 68 72 79 78 78 86 92 90 88 90 93 92 88 87 88 85 84 84 83 82 85 88 88 87 87 86 83 80
67 68 65 70 80 80 77 75 69 67 70 66 58 55 54 52 52 51 49 50 50 51 51 50 50 50 50 53 57 59 61 66 65 60 59 67 74 78 79 82 82 82 84 82 78 79 82 82 78 76 79 82 79 76 78 79 77 74 72 74 77 77 80 88 91 88 87 86 86 89 89 86 86 87 87 89 90 89 91 92 91 89 86 83 81 82
70 72 67 71 80 77 76 76 69 66 77 81 70 61 58 55 52 52 52 51 52 56 57 54 53 54 52 52 55 58 62 65 64 61 62 69 78 84 85 85 83 83 85 87 83 80 83 87 88 85 84 85 84 82 81 80 77 74 73 75 77 78 84 91 91 88 87 83 79 83 88 87 86 88 89 89 86 84 86 87 87 89 90 88 83 77
72 76 72 73 73 66 65 69 68 69 76 79 73 70 68 64 62 62 60 56 53 53 55 56 59 63 64 61 56 54 58 61 60 58 59 63 72 79 82 84 84 81 81 83 82 81 82 85 88 86 81 76 74 74 75 77 78 79 79 81 82 84 89 93 90 86 85 82 81 84 87 86 86 89 89 86 81 78 79 82 85 87 88 86 81 75
Wind_Speed
5 6 8 8 10 11 12 12 10 8 11 11 8 8 11 9 6 8 7 8 14 10 11 12 9 8 4 5 10 11 12 14 14 14 13 13 13 12 13 14 14 15 14 14 17 19 20 20 21 21 21 21 21 22 24 26 26 27 28 27 28 24 19 18 18 17 18 19 18 17 16 16 15 14 16 18 17 16 15 14 14 14 14 14 14 13
5 9 9 9 11 13 13 12 8 8 11 11 8 7 9 7 5 7 7 9 13 10 8 6 7 8 4 4 8 11 13 15 16 16 15 15 14 12 14 15 15 14 11 12 15 18 19 20 21 21 20 21 22 22 24 26 27 28 29 29 29 27 22 19 21 19 18 19 18 17 17 16 15 15 15 14 13 13 12 13 13 12 12 13 12 11
7 9 9 7 8 10 9 9 8 9 12 11 8 6 6 5 5 6 6 9 11 9 6 5 8 9 4 4 9 12 14 14 14 16 14 15 14 13 14 15 15 13 12 13 15 18 20 20 21 21 20 21 22 22 24 25 26 28 30 30 30 30 27 24 24 21 19 19 19 19 19 19 18 16 15 13 12 12 11 12 12 12 13 12 11 11
7 6 7 6 5 9 7 6 9 9 9 8 7 8 6 7 7 5 6 9 9 4 2 5 7 7 4 6 9 13 15 12 12 14 13 13 15 15 15 14 14 15 14 14 15 17 20 21 21 20 21 21 21 21 22 24 25 27 30 32 32 32 30 30 28 26 25 24 22 21 19 18 17 14 12 12 12 12 11 10 11 11 12 11 10 9
6 1 5 8 7 11 10 8 10 8 7 8 10 11 8 11 12 6 7 8 7 2 2 5 5 7 7 9 10 10 13 13 12 14 14 14 15 14 14 15 15 16 15 15 16 16 18 20 21 22 22 21 21 21 23 24 26 29 32 33 34 32 32 31 30 29 28 23 20 19 18 16 14 12 11 12 12 11 11 12 12 11 12 11 10 10
6 1 6 11 9 11 10 9 12 10 7 6 10 11 10 15 12 7 12 9 5 5 6 7 6 7 7 10 12 9 11 15 13 14 17 16 15 14 13 14 15 15 14 15 16 16 17 20 21 21 21 21 22 23 24 26 28 32 34 34 34 33 32 31 31 30 25 19 18 18 18 17 16 15 14 13 14 13 13 13 12 11 12 14 14 14
4 3 6 10 11 11 10 9 11 12 9 6 7 8 9 13 12 11 14 10 6 5 7 12 10 7 4 8 12 11 11 15 14 16 19 16 15 15 14 14 14 15 14 14 15 15 16 19 21 21 22 23 24 24 25 26 29 33 35 35 35 34 33 31 31 29 22 18 19 19 19 20 19 17 16 16 17 17 16 14 12 10 12 16 17 17
4 7 6 7 11 12 10 9 10 11 10 5 6 11 11 11 14 15 14 11 6 1 4 11 9 6 6 6 7 11 11 12 15 18 19 18 17 17 17 17 16 16 15 14 15 15 16 19 21 22 24 26 26 25 24 26 28 33 36 36 36 35 34 33 32 30 23 19 19 20 20 22 21 19 18 20 21 19 18 15 12 10 11 15 17 18
4 9 9 9 9 9 8 6 8 11 8 2 6 11 11 11 14 15 13 9 5 3 4 8 6 4 8 3 4 9 12 12 16 19 20 20 20 19 19 19 18 17 17 15 16 16 17 19 22 23 24 26 26 24 24 27 30 34 36 36 36 35 35 34 33 32 26 21 20 20 22 24 25 24 21 21 21 20 17 13 11 11 11 13 16 19
2 7 10 12 9 8 6 3 9 14 7 3 7 8 6 5 8 9 9 6 4 5 7 9 10 6 7 4 5 6 9 13 16 17 19 20 20 20 19 20 19 16 15 16 16 16 18 22 23 23 23 23 24 24 26 29 31 33 35 36 37 36 36 35 35 34 30 24 20 22 27 29 27 25 23 20 20 21 16 11 12 13 13 13 14 18
1 1 4 8 7 7 7 4 8 12 7 9 10 8 7 5 4 3 1 3 4 6 8 10 15 11 7 5 7 7 9 13 14 12 14 17 18 20 18 18 18 16 14 15 16 16 19 23 23 22 22 23 23 23 25 27 28 30 33 36 37 37 36 35 35 34 28 24 22 23 28 32 29 26 26 22 21 21 17 14 14 15 15 14 13 17
4 4 3 4 4 6 8 6 6 6 8 10 8 8 7 4 3 3 2 2 5 6 6 8 14 13 10 6 6 9 11 11 12 13 14 18 20 20 18 17 18 17 15 15 15 15 17 18 19 21 23 23 23 23 24 26 27 28 31 35 37 36 36 36 36 32 25 23 23 21 24 31 31 28 28 25 23 23 22 20 19 19 18 16 15 19
7 7 2 2 3 8 10 7 5 4 7 8 7 9 8 4 4 4 3 4 6 5 1 3 10 10 9 9 6 8 12 13 13 14 13 15 18 18 18 18 16 15 16 16 15 15 14 14 16 21 23 23 23 24 25 26 26 26 30 34 35 36 37 36 36 31 25 23 23 21 21 25 29 30 30 28 27 25 25 24 24 23 22 21 21 23
6 5 4 6 4 7 12 10 7 6 7 9 9 10 8 6 6 7 4 2 4 5 1 4 8 6 5 9 10 13 17 16 14 14 11 9 12 15 17 16 15 15 17 16 15 15 14 14 17 21 23 23 23 25 26 27 26 26 29 33 36 37 38 37 36 33 28 24 23 22 21 21 25 31 32 30 29 27 26 26 26 26 26 26 25 25
9 6 8 10 4 7 13 11 7 8 9 10 7 8 8 6 6 6 5 4 4 3 2 5 6 6 4 2 5 11 13 11 10 12 10 9 8 11 13 15 16 17 17 14 14 16 15 16 20 22 23 24 25 26 27 26 26 27 29 34 37 37 37 37 37 36 34 29 23 21 22 20 24 31 33 31 31 29 27 28 28 28 28 27 26 26
10 7 5 6 3 8 12 7 6 9 9 7 4 6 9 7 6 3 2 3 3 2 3 5 4 4 3 5 7 7 8 8 9 10 11 12 10 10 12 15 17 17 17 16 15 16 16 18 21 23 23 24 25 26 26 26 27 29 31 35 39 39 38 37 37 38 37 33 25 22 23 21 24 32 33 32 32 29 29 29 29 29 29 28 27 25
7 5 3 3 3 8 10 8 9 9 7 4 5 7 4 3 6 4 1 1 2 4 4 5 4 3 1 8 9 7 8 10 9 8 11 12 11 12 12 14 16 16 17 17 17 17 17 18 21 23 23 24 25 26 27 28 31 35 35 34 37 37 36 37 38 38 37 34 28 25 25 25 30 34 34 33 33 30 30 30 30 30 29 28 27 25
5 5 5 8 9 8 7 8 11 10 6 5 7 8 4 2 2 2 3 3 4 8 4 4 7 5 3 4 3 2 7 11 11 9 9 9 12 14 14 14 16 17 18 18 18 17 16 17 21 24 26 26 28 29 30 35 39 40 37 34 33 33 34 37 37 37 38 37 32 26 27 31 36 36 34 34 33 31 31 31 31 30 29 28 27 25
5 6 5 9 13 9 5 6 10 10 6 1 4 9 6 4 5 2 4 5 6 8 4 4 7 6 6 5 3 4 7 9 10 7 8 10 13 14 15 15 16 16 16 16 16 15 15 17 20 24 26 28 29 29 31 36 37 34 33 33 32 32 36 36 32 33 36 34 30 29 33 38 38 36 35 34 34 32 32 32 32 31 30 28 27 26
5 7 4 5 7 7 7 8 10 10 6 1 3 8 4 4 5 4 3 4 6 7 4 5 6 4 6 6 6 10 10 9 10 6 8 12 14 14 14 14 14 14 14 14 15 16 17 19 22 26 28 28 29 29 30 31 31 30 31 31 31 30 32 32 32 36 37 33 33 36 39 39 38 37 36 34 34 33 32 32 31 30 29 27 26 27
5 6 5 3 2 5 7 8 12 13 9 5 7 8 5 2 2 3 3 2 4 6 5 6 7 4 4 5 8 12 11 10 11 9 8 10 13 14 13 12 13 13 14 15 16 17 18 18 22 27 28 28 28 28 29 28 28 30 29 29 32 31 29 31 33 36 37 36 38 39 39 39 39 38 36 35 35 34 33 32 29 28 27 27 27 27
5 4 6 4 4 7 9 8 11 15 12 10 9 8 9 7 4 6 7 3 3 5 4 5 8 5 6 6 8 10 11 12 12 9 8 9 10 11 10 12 13 13 14 16 16 17 17 17 20 25 26 25 25 24 26 27 26 28 28 28 30 30 30 30 29 32 37 37 37 39 39 39 39 38 37 36 35 33 33 31 28 27 28 27 28 28
4 3 6 8 7 10 10 7 5 9 11 12 11 10 11 10 9 10 9 4 4 3 1 2 6 5 5 6 8 9 10 10 8 6 8 9 7 8 9 12 13 13 14 15 15 15 15 15 18 22 23 24 24 24 26 26 26 28 28 28 28 28 30 29 27 31 37 37 37 39 39 38 38 37 34 33 32 33 34 31 29 29 29 29 29 28
4 2 5 7 6 7 7 5 2 2 7 11 12 12 12 12 13 12 6 4 5 6 4 3 6 5 3 2 4 6 7 7 6 6 9 9 5 6 10 11 12 12 12 12 13 12 12 13 16 16 18 20 21 22 24 25 26 26 27 27 27 27 27 27 25 27 33 37 37 36 38 37 34 30 27 29 31 34 34 32 30 29 29 29 29 28
4 3 5 6 6 6 7 8 6 4 6 8 8 11 13 15 15 8 2 3 6 9 11 8 7 5 3 1 2 4 6 9 10 9 8 8 6 5 8 9 10 10 10 11 12 12 13 14 14 13 14 17 19 20 22 24 25 25 25 25 25 24 24 26 25 24 29 33 31 32 35 31 25 25 28 32 36 36 35 32 30 30 30 29 28 27
5 5 7 8 9 9 9 10 8 5 5 5 6 9 13 17 18 9 3 4 7 8 11 10 7 4 3 1 2 4 5 10 13 10 7 7 8 6 6 8 9 9 10 12 13 12 13 13 12 12 13 16 20 22 22 24 25 24 24 24 24 24 23 25 25 24 26 28 27 28 26 22 24 30 36 38 38 37 36 34 31 30 30 29 27 27
2 3 9 11 11 11 10 9 6 5 6 8 9 12 12 15 17 11 5 7 5 4 6 9 7 6 7 6 5 6 8 10 11 9 7 8 9 8 7 7 8 8 9 11 11 11 11 11 13 14 14 17 21 22 22 24 25 24 23 23 24 23 22 24 25 24 24 25 24 21 21 26 33 40 42 42 41 40 39 37 34 32 31 30 29 29
2 5 13 15 14 14 15 14 10 10 12 13 13 15 15 15 17 15 13 10 7 5 9 9 7 9 11 9 9 10 9 8 9 9 8 8 7 6 6 6 8 9 9 10 11 12 13 13 13 14 14 17 20 21 22 23 23 22 22 22 23 23 23 23 23 22 22 21 18 18 25 34 41 44 46 45 42 40 40 40 37 34 33 32 31 31
3 7 12 16 17 18 21 19 13 12 13 14 15 17 17 17 18 18 17 12 9 8 12 7 8 10 11 10 11 12 11 11 11 9 6 4 5 6 7 9 11 12 12 13 14 14 14 13 13 14 14 16 19 20 20 20 20 20 20 21 22 23 23 21 20 20 19 17 17 22 30 36 39 43 45 42 38 38 39 39 37 34 34 34 33 31
2 5 6 11 16 18 21 20 14 13 13 13 15 17 17 18 20 20 19 17 14 15 15 9 10 12 12 12 13 11 10 10 6 3 4 5 8 9 10 11 12 13 14 15 15 14 13 13 13 13 13 14 17 20 20 20 20 20 21 21 21 21 21 18 17 19 18 17 21 27 31 33 36 39 40 37 37 36 32 30 34 36 36 36 34 33
2 3 1 5 9 13 17 17 14 15 16 16 17 16 16 16 17 18 17 14 13 15 13 10 10 10 10 11 10 5 3 3 3 4 8 9 9 10 11 12 13 14 14 15 14 13 12 11 12 13 13 15 18 20 20 20 19 20 20 20 19 19 19 18 18 20 20 19 22 29 31 31 34 39 40 35 33 35 35 33 36 39 39 38 36 34
2 2 0 2 5 8 10 14 15 15 15 17 19 17 15 14 13 13 11 9 10 12 9 6 7 8 7 8 7 4 2 5 9 10 9 8 9 11 13 13 13 14 15 14 13 12 13 13 14 14 15 16 19 20 19 17 16 16 16 17 18 19 20 20 20 21 21 19 22 27 30 33 35 35 30 21 20 32 44 47 44 42 39 38 37 34
2 2 2 1 5 7 7 10 12 11 10 12 14 15 15 13 11 11 10 10 13 13 9 7 8 8 5 4 6 8 8 9 10 9 7 7 8 11 12 13 13 14 14 13 13 14 15 15 14 14 15 16 18 18 17 16 15 17 19 20 21 20 19 19 20 20 20 19 22 27 31 33 31 25 20 19 23 35 46 49 50 47 40 36 33 30
3 3 3 1 4 7 5 4 6 7 8 8 7 11 16 16 16 15 12 11 13 11 6 4 6 6 5 6 8 9 8 5 4 4 3 4 6 9 11 11 9 7 7 9 12 14 13 11 11 12 14 15 15 16 16 18 20 21 21 21 19 19 18 18 18 18 19 20 24 28 30 29 27 26 27 30 34 38 40 43 46 42 33 28 25 24
5 5 3 2 3 4 1 3 6 8 8 4 1 4 10 15 18 15 6 4 7 7 4 5 7 6 5 5 6 5 4 3 1 2 2 3 6 8 10 10 7 4 4 7 10 11 10 10 10 11 13 15 16 17 18 21 21 19 18 18 18 19 18 17 17 18 19 21 22 26 29 29 29 31 34 34 34 36 39 42 42 33 23 20 21 21
6 5 2 2 3 2 1 4 6 5 1 1 1 2 3 6 9 9 4 2 4 5 6 8 9 5 3 4 4 3 3 5 4 2 1 3 5 6 8 9 8 7 7 7 8 7 8 10 12 13 15 16 18 19 19 19 18 16 16 16 17 17 17 17 17 18 19 19 21 25 29 30 30 31 33 33 34 36 38 40 36 28 21 20 22 21
5 5 2 3 2 2 3 4 3 3 3 3 2 3 3 2 5 7 7 6 4 3 5 7 7 5 4 5 5 5 5 5 4 2 3 5 5 5 6 7 8 9 9 10 10 10 10 12 14 16 17 17 16 16 15 15 15 15 14 14 15 16 16 16 16 18 20 19 20 25 28 28 29 30 30 31 31 33 36 36 33 28 26 25 25 25
5 3 1 3 2 1 3 4 3 5 6 4 3 2 1 2 3 4 5 6 4 2 5 7 7 7 7 6 7 8 7 5 4 1 5 8 6 3 2 1 3 5 6 7 9 11 11 10 11 12 12 11 10 9 10 12 14 14 14 14 14 14 15 15 16 17 20 19 19 24 26 27 28 29 27 27 27 27 28 28 27 28 29 28 27 29
4 1 0 3 2 1 2 5 5 6 4 1 2 2 3 3 3 3 6 6 3 1 3 6 7 7 6 7 9 9 7 6 4 1 6 8 5 0 3 5 6 7 7 7 7 10 10 9 10 11 10 10 8 7 9 12 13 13 12 11 12 13 13 13 13 15 17 17 18 21 23 24 26 25 22 21 21 19 19 20 23 26 27 26 26 28
4 1 2 5 3 1 1 4 5 4 1 3 6 7 7 4 2 6 8 5 2 2 2 4 5 6 6 9 9 6 3 3 3 2 4 5 5 5 7 9 10 10 10 11 12 13 13 13 14 13 12 11 9 9 11 12 12 11 10 9 10 10 10 10 12 14 16 16 17 19 20 22 22 19 18 19 19 19 22 26 29 29 28 26 25 23
3 1 3 5 3 0 1 3 5 3 1 4 9 11 7 2 5 8 7 2 3 3 1 2 6 7 7 7 7 5 4 5 6 5 6 8 10 10 10 13 15 15 14 14 14 16 16 16 16 15 13 11 12 12 12 13 12 10 9 9 8 7 8 11 14 15 16 15 16 17 18 19 18 16 17 19 18 21 27 29 31 32 28 24 21 19
4 2 2 3 3 1 1 3 5 2 3 9 16 12 5 3 4 4 2 2 4 6 7 8 9 10 10 10 10 9 9 10 10 9 10 11 12 11 11 14 16 16 16 15 14 14 15 15 15 16 14 12 13 13 13 14 13 11 9 9 8 9 10 12 13 13 14 15 16 15 15 15 15 16 18 19 21 26 31 30 29 30 27 22 18 17
7 5 1 2 2 1 1 2 4 3 3 15 18 9 2 1 1 4 6 4 6 10 11 10 10 9 11 13 13 12 13 13 12 11 12 12 12 12 12 12 14 14 14 15 15 16 17 16 15 15 14 12 13 13 12 14 14 11 10 10 10 12 13 13 13 14 15 15 15 14 14 14 15 18 21 23 25 29 29 25 23 24 23 20 16 14
7 7 3 1 2 1 1 1 3 3 8 15 12 3 3 4 4 5 6 6 7 9 9 9 9 8 8 11 12 12 13 12 11 11 11 11 12 12 12 11 11 11 12 14 16 20 22 19 15 15 14 13 14 13 10 12 13 11 9 10 13 15 15 15 16 15 15 14 13 13 14 15 17 21 24 25 27 26 23 20 19 19 18 17 15 14
2 4 5 4 1 1 2 1 4 6 9 11 8 5 7 8 7 5 6 7 7 6 6 7 8 7 7 9 10 10 11 11 11 11 11 10 11 11 11 11 11 11 12 13 14 17 20 19 17 16 13 12 14 13 11 11 13 12 11 12 15 16 16 17 17 15 14 13 12 13 14 15 18 23 25 25 25 23 21 20 20 19 17 16 16 17
3 3 6 6 3 2 4 1 4 6 8 10 10 8 7 8 6 6 7 7 6 6 6 6 7 7 7 7 9 10 9 10 11 11 10 10 10 10 10 10 10 11 12 11 10 12 16 18 17 15 14 13 13 12 11 11 11 13 14 16 17 17 18 18 17 14 12 13 14 15 15 15 17 20 21 21 21 20 19 20 20 19 17 16 16 17
4 5 4 5 8 5 4 3 2 4 7 9 8 6 7 9 8 7 7 7 6 7 8 8 9 9 8 8 9 10 9 10 11 10 9 9 9 9 10 10 10 10 11 10 8 7 10 13 12 11 11 12 12 12 12 12 12 13 16 18 19 19 19 19 17 14 14 16 17 16 16 16 16 16 17 17 16 16 16 16 16 16 17 16 16 19
5 8 5 6 10 4 4 6 5 3 4 7 6 4 5 8 10 10 8 7 8 9 10 10 10 9 9 8 8 9 10 10 9 9 9 8 8 8 8 8 8 9 10 10 9 7 7 8 8 8 8 9 12 13 12 12 14 16 17 18 18 19 20 19 15 14 16 17 17 15 16 16 16 15 14 14 14 13 13 13 14 16 18 18 18 20
7 7 3 5 7 5 5 6 7 5 2 5 5 2 2 5 8 10 9 10 11 11 12 12 12 10 9 8 7 8 10 9 8 9 10 8 7 7 8 7 8 8 8 8 7 6 5 4 4 4 4 5 9 12 10 9 12 15 17 18 18 20 20 18 15 14 16 16 15 14 14 15 14 13 13 14 13 13 13 13 13 14 16 17 17 17
6 4 1 4 6 5 7 10 9 7 4 1 3 1 2 4 8 10 10 10 11 11 11 13 13 12 11 9 8 8 10 8 8 9 9 8 7 7 7 7 7 6 6 5 3 3 4 3 3 4 3 3 6 8 7 7 10 14 15 16 19 20 19 17 15 13 13 14 13 13 14 15 15 15 14 13 13 14 14 14 14 14 13 14 15 15
6 7 6 3 1 2 9 12 8 5 6 6 3 0 2 3 7 10 9 9 9 9 9 11 12 11 10 10 8 8 9 8 7 8 9 8 7 7 7 7 6 5 5 3 2 2 2 3 3 2 2 4 5 5 4 6 10 12 14 16 19 19 18 18 15 12 11 12 12 13 15 14 15 16 14 12 14 15 14 12 11 11 12 13 13 13
Wind_Direction
183 192 202 197 186 180 181 195 205 189 181 184 191 203 195 182 170 152 124 149 171 191 214 211 232 239 215 178 187 190 192 200 201 196 197 196 195 195 195 198 200 206 209 198 196 200 201 203 202 202 204 205 207 211 213 214 216 218 219 220 221 221 216 214 215 216 218 220 220 224 228 230 232 234 243 250 249 243 242 245 248 249 250 256 259 258
192 210 207 194 183 178 182 193 194 180 180 184 189 205 204 189 161 146 137 149 167 192 214 212 247 249 241 204 193 191 198 207 205 201 201 199 197 198 200 201 202 206 203 195 196 200 204 205 203 203 203 204 204 207 210 211 214 218 219 221 222 222 217 215 217 215 216 218 218 220 225 228 230 234 238 240 241 239 237 238 240 241 243 248 250 249
204 218 200 185 188 185 183 186 183 181 184 187 188 194 203 182 125 119 138 146 162 199 210 188 233 242 235 221 207 200 207 214 211 207 206 201 201 202 202 203 205 203 196 196 200 202 206 207 204 203 204 205 205 205 207 209 212 216 218 220 222 223 221 220 221 218 219 222 224 228 231 234 235 235 237 238 241 241 236 233 231 236 240 239 238 239
201 218 190 169 182 185 177 180 181 184 192 188 180 191 194 170 165 164 155 151 156 190 202 169 230 248 215 220 220 211 213 218 217 214 212 207 207 207 205 204 203 202 199 199 202 203 205 206 205 204 204 205 205 204 205 206 209 213 217 220 221 222 223 224 224 225 229 232 234 234 234 237 238 236 237 241 244 239 234 231 228 234 235 230 228 224
205 199 159 158 175 187 179 178 181 183 198 192 191 200 181 171 194 185 130 136 142 132 134 158 243 258 210 213 223 211 211 219 219 215 216 217 217 214 210 210 207 205 201 198 202 202 201 202 204 205 205 204 204 204 206 205 208 214 219 222 223 222 222 223 225 228 230 230 231 231 230 233 233 230 231 234 235 230 228 229 227 228 228 224 219 212
224 110 149 164 179 192 181 180 188 187 190 201 208 210 179 173 187 148 129 142 163 209 201 180 246 262 198 211 223 199 198 214 216 215 219 219 218 216 214 214 212 211 207 201 202 201 198 200 201 204 204 203 206 207 208 208 212 218 222 224 224 222 221 222 225 227 224 220 221 222 221 221 222 223 223 222 224 225 228 226 222 222 221 216 211 206
220 153 164 173 174 186 190 191 193 188 189 202 202 193 171 167 167 152 158 174 200 225 194 184 225 257 205 214 217 197 198 210 211 216 221 219 216 214 213 215 212 211 211 206 206 204 200 199 198 201 202 203 208 208 208 209 213 218 222 224 224 223 222 223 225 224 218 214 218 218 217 218 219 220 222 226 230 234 237 231 221 218 213 208 205 202
172 159 176 184 178 186 195 194 191 193 197 189 157 161 161 162 164 163 173 192 204 187 155 185 216 263 258 241 196 191 205 213 215 219 221 219 218 215 214 216 212 209 208 205 206 205 203 200 198 200 201 203 208 207 205 207 211 217 220 223 224 224 223 224 226 223 215 213 216 217 218 220 222 223 228 236 238 237 236 230 220 213 208 205 204 203
158 182 184 181 189 195 194 185 176 185 199 182 141 157 160 165 169 169 181 196 190 171 192 196 195 243 251 254 125 185 209 221 223 222 220 218 216 214 213 214 213 210 207 204 204 205 205 204 202 202 201 203 206 204 204 207 212 217 220 222 223 223 224 225 227 225 220 216 215 216 218 220 225 228 231 235 237 232 225 218 212 209 207 205 205 205
168 202 188 181 194 200 192 164 169 185 197 125 128 129 115 137 159 170 190 183 154 201 219 195 184 214 249 219 146 180 212 226 227 223 220 217 214 213 213 213 213 210 207 206 206 206 206 206 205 204 203 204 204 203 205 209 213 216 218 220 221 223 224 224 226 225 221 218 216 219 221 222 225 227 228 228 231 228 218 209 210 208 207 205 205 206
232 220 174 189 199 188 186 176 181 190 165 122 126 117 88 81 116 126 164 143 155 213 227 199 189 207 254 221 169 186 211 216 220 223 220 214 213 213 211 211 211 208 205 206 206 207 207 206 204 201 202 204 203 202 205 207 210 213 216 218 220 222 223 223 224 223 219 216 216 220 223 224 224 226 226 224 223 222 213 207 209 208 207 205 203 205
239 221 171 204 201 168 179 190 194 188 155 140 136 136 124 97 118 111 87 174 203 219 226 204 192 205 242 240 181 203 222 217 216 224 216 207 209 210 209 208 208 207 203 201 205 208 205 202 199 199 202 203 200 200 202 205 208 209 213 217 219 221 222 222 222 219 214 214 216 218 221 224 225 226 226 223 221 220 215 213 213 212 209 205 202 204
224 222 207 229 197 176 184 186 179 175 178 178 156 152 163 156 164 177 176 194 216 227 241 170 184 203 241 255 241 228 239 235 226 230 225 212 208 205 206 205 202 203 203 200 202 204 201 195 193 199 202 200 197 199 201 204 206 207 211 215 217 219 221 221 220 217 212 213 216 216 218 222 224 227 228 226 225 224 221 219 217 213 209 205 202 201
202 229 230 215 199 186 193 192 183 171 185 196 174 170 187 177 178 191 174 179 219 227 232 145 181 208 245 256 249 239 246 243 231 235 236 224 211 203 205 204 199 205 206 203 201 200 198 194 193 197 198 197 198 199 200 202 203 205 210 214 216 219 221 221 219 217 214 213 215 215 216 217 221 226 228 228 228 228 226 223 220 215 210 205 202 200
201 219 207 200 183 176 198 208 190 156 175 199 184 187 203 186 193 200 176 193 200 183 136 143 178 209 194 243 244 234 255 263 243 237 227 220 216 200 200 204 204 209 209 203 200 199 197 194 195 197 196 195 197 199 200 200 201 203 208 213 216 219 220 220 220 218 217 216 214 215 217 216 219 225 228 229 230 230 228 225 220 216 212 208 205 204
211 228 194 193 177 171 193 203 160 151 179 196 170 199 212 184 180 197 190 198 172 147 167 167 210 230 217 307 289 249 271 276 251 236 217 214 208 188 192 201 204 207 206 203 201 201 199 196 196 198 197 196 196 198 199 199 199 203 208 213 216 218 220 220 220 220 220 218 214 214 216 215 218 225 228 228 229 228 228 226 221 217 214 212 210 209
205 225 162 168 195 185 189 176 171 189 188 163 181 205 206 158 171 178 175 88 135 222 199 171 229 248 249 284 275 250 260 260 250 234 219 212 192 184 195 199 201 202 200 201 201 199 197 195 197 198 197 196 195 196 198 199 203 207 209 210 214 216 218 220 221 221 220 217 216 215 214 215 221 225 227 227 226 226 226 225 221 218 216 214 213 212
201 214 168 183 206 202 192 180 193 207 179 156 199 182 107 52 195 180 202 169 190 230 214 167 219 227 201 247 272 251 249 251 248 229 212 201 186 194 204 199 197 198 196 198 197 194 195 196 198 197 197 197 197 196 197 202 208 210 210 209 210 212 214 218 219 220 220 219 217 215 214 219 224 226 226 226 226 225 224 222 219 217 216 214 213 213
197 220 191 194 205 187 159 190 208 209 193 226 199 161 144 201 190 169 214 192 198 229 222 180 214 228 214 213 245 256 252 257 255 223 187 195 198 203 210 203 197 194 194 197 197 196 198 200 197 196 198 199 198 197 199 204 207 207 208 210 209 211 215 217 216 217 220 217 214 217 222 225 226 225 226 225 224 224 222 219 217 216 216 215 214 213
179 224 212 191 200 173 160 197 215 206 192 313 172 168 186 219 184 182 197 182 204 225 224 205 210 213 211 202 213 239 250 256 256 234 195 203 205 206 209 202 191 190 194 196 198 200 200 200 197 196 198 200 198 199 202 203 203 204 207 208 208 211 213 213 214 218 219 216 217 223 225 226 225 225 225 224 222 221 220 218 217 216 216 216 215 213
169 218 218 166 146 181 188 199 215 210 193 186 194 187 183 168 160 200 195 164 210 219 213 225 230 204 186 194 206 224 238 240 243 244 223 213 211 210 206 195 186 188 194 195 197 201 199 198 197 197 199 200 200 201 202 202 202 205 207 206 207 208 207 209 213 217 219 219 221 223 223 224 224 223 222 221 220 220 218 216 215 216 217 217 216 214
177 195 210 191 171 204 211 199 211 221 210 195 200 193 186 180 165 199 213 183 191 221 202 223 246 221 169 186 204 216 231 236 237 241 240 234 221 209 203 196 191 188 193 198 198 198 197 194 195 196 196 197 199 201 201 201 203 206 207 207 208 207 207 209 209 214 219 219 220 221 222 222 221 220 219 218 217 216 215 213 214 216 215 215 216 214
172 166 206 214 212 216 214 188 198 234 221 204 204 200 197 196 190 206 220 179 167 218 144 200 258 237 169 185 204 213 229 240 245 244 251 254 231 204 202 200 196 193 197 200 198 196 195 190 189 191 190 192 195 197 197 200 203 206 208 208 208 207 209 208 206 213 219 218 219 221 220 219 219 218 215 213 212 212 213 214 216 217 212 211 213 214
150 151 204 219 230 230 221 192 144 240 217 211 212 203 200 206 208 214 213 166 185 198 163 200 245 217 169 179 212 233 249 258 260 241 242 254 243 204 203 198 194 195 196 196 194 191 188 183 183 186 188 190 192 194 196 200 205 207 209 210 210 210 210 207 206 210 216 217 217 218 218 217 214 209 206 209 211 212 213 215 216 216 213 211 212 213
174 185 198 212 224 226 221 212 205 198 202 215 217 206 205 209 210 209 144 158 213 195 183 215 235 197 174 133 195 245 260 260 257 243 237 252 253 219 206 197 191 188 187 189 188 183 181 182 183 186 189 189 191 195 198 202 206 208 210 211 212 212 211 210 208 207 211 213 211 212 216 210 195 194 206 213 213 212 213 214 215 216 216 213 213 214
187 190 188 204 217 217 215 216 213 197 192 214 218 208 209 212 209 198 135 197 217 185 186 218 227 183 176 222 217 233 248 253 253 246 240 250 249 231 209 197 189 183 186 188 187 183 182 184 185 186 188 190 193 197 200 204 208 210 212 212 212 213 212 211 211 208 207 206 204 206 203 183 175 195 211 215 213 211 211 212 214 215 216 216 217 216
184 191 190 203 216 219 220 218 199 176 191 206 209 206 207 213 211 200 193 213 195 147 197 217 213 202 201 202 217 228 230 241 249 243 235 242 242 229 212 201 189 184 187 187 184 182 182 184 186 187 189 191 195 199 201 204 208 209 211 211 211 212 213 212 211 208 205 204 203 192 174 175 190 204 213 215 212 209 208 210 211 211 215 219 219 215
193 209 199 203 213 217 223 219 194 189 208 209 207 207 200 201 205 204 214 210 150 156 221 206 187 216 214 198 209 221 220 232 245 236 227 233 233 217 204 197 188 187 187 185 186 186 185 186 187 187 189 192 196 199 201 205 207 208 209 210 211 212 214 213 209 206 205 201 190 175 180 196 205 209 213 211 208 206 206 207 208 208 213 219 218 215
218 227 204 204 212 215 223 223 200 192 212 211 210 212 200 195 200 206 219 211 166 201 232 197 168 212 217 207 213 217 213 217 225 222 215 216 209 195 194 193 193 192 188 189 194 193 188 186 184 185 189 192 195 197 200 204 205 207 209 210 212 213 216 215 208 206 205 192 182 190 201 208 210 212 212 206 202 207 207 205 208 211 214 218 219 217
230 248 213 209 217 218 223 225 205 196 212 212 211 210 202 200 200 202 215 211 197 219 232 203 188 209 215 215 217 218 217 217 216 202 194 205 201 194 194 196 196 194 192 196 199 193 188 184 181 183 185 189 194 196 199 202 202 206 209 212 213 214 215 215 207 205 203 191 194 205 209 208 209 212 210 201 199 206 207 206 211 215 216 218 218 215
220 258 195 199 224 229 229 227 214 207 216 220 216 208 201 204 205 205 211 204 198 218 223 203 202 214 216 220 223 224 217 205 206 208 211 213 201 189 192 197 197 196 199 203 199 187 182 180 178 181 187 192 195 195 197 199 200 204 208 212 214 213 213 213 209 208 205 198 203 208 207 206 208 210 210 203 193 195 205 215 218 216 216 217 214 209
251 264 28 171 232 242 228 224 220 213 218 229 229 216 199 197 205 210 208 191 189 206 208 194 210 225 221 221 229 233 196 201 215 217 214 210 196 192 197 197 194 197 203 203 191 180 181 182 181 185 190 194 195 195 196 194 192 196 202 207 212 213 213 212 212 211 206 201 203 206 205 207 210 211 207 193 173 186 203 214 218 218 216 213 209 205
285 296 317 219 251 262 240 219 214 208 214 231 233 224 208 195 197 206 204 196 197 200 199 203 219 225 208 188 216 227 217 217 224 224 216 206 197 201 206 201 197 201 204 196 182 180 185 187 186 187 188 190 191 192 190 184 185 194 202 207 210 210 209 209 209 209 205 202 204 206 206 206 206 201 188 178 182 195 203 208 213 216 214 208 203 199
297 302 304 282 266 278 268 187 179 198 217 224 223 220 213 202 199 205 205 204 205 202 201 217 227 224 193 180 206 220 216 223 254 266 244 210 197 208 219 222 218 213 203 188 183 186 187 182 178 178 179 179 180 180 182 187 196 202 204 204 204 202 203 204 205 206 204 204 205 206 205 201 196 194 196 197 198 201 203 205 211 214 211 203 194 187
287 280 265 239 258 289 336 143 194 224 223 210 176 214 216 213 208 204 190 181 206 215 227 237 231 219 196 198 217 225 199 168 128 322 288 240 214 207 214 225 232 229 203 187 188 192 183 168 163 164 168 172 176 180 187 195 200 200 198 198 198 199 200 199 201 205 205 203 202 203 201 197 195 198 203 203 200 199 202 207 210 210 202 189 176 171
268 273 256 233 235 269 273 201 227 258 265 131 89 117 167 203 193 184 174 168 201 218 225 233 236 227 201 212 226 228 184 150 130 105 342 296 258 225 215 214 206 200 195 186 188 190 174 166 166 165 167 173 178 184 191 193 194 193 193 194 195 195 195 198 201 206 206 200 198 200 200 198 199 200 202 203 200 200 204 205 206 203 191 177 166 163
239 258 265 261 234 235 266 251 254 296 276 218 176 135 136 169 168 183 201 189 173 196 216 234 254 249 220 207 197 190 179 161 151 121 26 344 297 255 240 225 202 192 188 180 176 173 173 177 174 169 170 175 179 184 186 184 183 183 184 187 188 187 189 195 200 205 207 203 198 201 201 200 200 201 201 201 200 202 204 203 200 194 183 171 166 172
201 238 268 273 256 208 270 275 261 253 236 191 144 112 32 317 281 249 221 181 159 202 217 227 243 234 211 184 163 168 177 180 183 145 10 349 319 270 242 226 185 170 162 160 160 157 163 170 164 157 158 159 162 167 169 170 173 174 176 179 179 179 185 193 199 206 209 206 202 203 202 201 202 202 201 202 203 205 205 198 189 181 173 167 172 186
132 88 243 263 276 141 263 272 253 244 243 99 43 3 350 323 292 241 211 194 175 202 227 227 230 222 199 165 150 158 174 180 173 55 359 348 339 13 116 103 96 99 101 104 116 128 134 130 123 122 118 113 119 138 155 163 167 168 169 167 167 174 184 191 197 204 207 207 207 206 203 201 203 202 202 204 205 203 195 181 171 168 170 177 187 196
108 75 260 264 278 89 255 272 258 245 278 7 345 330 325 314 226 196 201 193 112 23 285 229 199 178 163 152 144 141 157 155 134 65 16 26 45 63 81 88 87 85 87 90 101 113 115 109 105 103 98 98 112 134 147 152 152 148 146 147 157 170 178 187 197 204 207 208 208 206 204 203 201 197 194 197 195 187 178 173 173 176 180 186 192 196
92 18 291 278 278 74 171 262 271 258 91 8 337 324 315 272 190 194 201 172 61 34 354 134 136 128 122 125 122 103 77 90 101 97 88 88 84 77 78 83 84 83 85 91 99 104 103 99 98 97 96 103 118 130 138 139 130 122 125 134 144 154 171 191 201 204 206 207 204 204 204 201 194 184 183 187 183 172 168 171 177 180 178 179 185 192
136 179 272 272 260 262 141 268 275 237 80 5 340 322 293 217 196 177 142 88 81 80 77 85 98 100 96 93 96 102 101 97 101 104 99 93 90 85 86 89 90 90 92 91 89 92 95 93 91 90 90 97 109 119 126 123 114 111 120 131 140 157 176 191 195 196 198 198 196 195 190 184 181 175 173 174 169 164 166 172 178 177 173 173 180 188
158 168 218 275 244 175 99 281 270 229 1 348 335 314 261 220 176 120 102 96 90 85 83 80 77 83 94 99 100 106 108 104 103 101 94 89 87 84 82 84 87 91 93 90 84 83 84 79 71 70 73 80 92 101 112 115 116 121 130 140 155 168 175 180 182 184 186 184 182 179 174 173 174 170 168 168 166 164 168 174 176 173 172 174 179 189
163 171 177 218 261 260 121 285 306 320 330 333 332 330 88 79 102 116 105 99 92 88 89 87 76 68 84 100 105 105 102 98 92 87 81 76 77 78 76 74 78 83 86 86 87 87 86 84 79 73 71 80 92 100 110 118 122 126 134 149 162 167 169 173 176 175 171 168 168 169 170 171 168 167 170 173 170 167 166 169 171 173 174 178 189 204
181 168 136 114 277 286 118 208 307 327 329 335 353 37 73 86 94 91 92 96 91 85 87 89 87 75 70 84 92 89 87 86 80 75 72 66 63 67 70 70 71 76 81 85 91 94 97 101 103 100 97 100 108 115 123 128 132 139 149 160 166 166 167 170 169 164 158 159 164 167 168 166 165 168 172 173 171 167 165 169 174 178 181 188 201 210
49 92 97 105 152 132 96 127 290 322 340 348 3 24 53 71 69 62 76 79 68 65 66 67 71 62 49 63 75 69 68 77 77 72 70 67 61 56 58 60 60 66 75 78 81 93 103 108 109 112 115 116 119 125 131 138 146 154 161 166 168 170 170 168 162 156 155 162 165 165 163 160 162 166 167 168 170 171 173 177 181 185 190 196 203 207
56 23 33 140 165 157 127 162 253 339 345 343 353 17 43 56 54 46 54 63 63 66 64 61 66 61 46 54 71 70 63 65 71 69 62 61 60 53 51 53 50 51 58 59 53 67 95 103 107 114 120 126 136 143 148 156 165 169 169 168 169 173 173 167 159 156 163 166 163 162 163 161 158 158 161 166 171 176 180 185 187 190 196 199 202 209
354 344 343 160 161 147 137 155 147 78 1 335 341 9 41 62 67 59 53 57 62 65 62 59 62 65 58 51 60 74 71 61 62 68 63 53 51 47 45 48 47 45 51 53 47 47 63 83 105 122 125 133 149 159 165 171 175 174 170 169 172 175 173 165 159 163 169 167 160 159 166 165 158 155 161 168 173 177 184 191 196 199 203 206 210 216
319 311 312 151 139 97 94 132 143 124 54 335 328 6 51 75 85 79 71 66 61 61 62 58 53 55 60 54 49 65 72 61 57 68 69 58 47 38 31 31 34 38 46 49 48 54 59 65 88 100 91 114 153 171 178 177 173 170 168 171 177 178 172 165 165 169 168 164 161 163 166 167 165 162 161 164 171 178 184 192 202 207 210 216 220 221
329 307 345 122 139 145 158 168 167 147 135 242 266 289 24 84 96 91 83 76 70 66 66 66 59 48 43 40 44 63 70 57 50 64 70 61 49 39 31 27 27 33 45 55 74 101 108 100 85 76 82 125 162 174 174 170 173 173 173 178 181 179 173 168 168 168 163 162 169 173 173 176 179 176 169 168 178 186 188 195 203 206 208 216 220 222
332 306 291 259 234 162 162 165 161 133 131 145 155 333 358 61 91 94 89 85 84 81 81 84 79 64 42 23 21 51 73 67 52 60 66 59 47 40 34 27 21 21 25 33 66 87 89 98 103 111 161 187 195 191 185 188 188 183 181 183 182 179 176 171 164 158 161 171 179 182 182 185 188 185 180 182 188 187 182 182 188 192 200 212 219 224